Regional Weather Roundup
Issued by NWS

Home | Current Version | Previous Version | Text Only | Print | Product List | Glossary On
Versions: 1 2 3 4 5 6 7 8 9 10 11 12 13 14 15 16 17 18 19 20 21 22 23 24 25 26 27 28 29 30 31 32 33 34 35 36 37 38 39 40 41 42 43 44 45 46 47 48 49 50
000
ASUS45 KPSR 211210
RWRAZ

ARIZONA REGIONAL HOURLY WEATHER ROUNDUP
NATIONAL WEATHER SERVICE PHOENIX AZ
500 AM MST THU AUG 21 2014

NOTE: FAIR INDICATES FEW OR NO CLOUDS BELOW 12,000 FEET WITH NO
SIGNIFICANT WEATHER AND/OR OBSTRUCTIONS TO VISIBILITY.

AZZ001>003-036-211300-
NORTHWEST ARIZONA

CITY           SKY/WX    TMP DP  RH WIND       PRES   REMARKS
BULLHEAD CITY  PTCLDY    82  57  42 CALM      29.85S
KINGMAN        CLOUDY    71  52  50 SE10      30.03R
6HR MIN TEMP:  67; 6HR MAX TEMP:  76;

$$

AZZ004>008-015-016-018-211300-
NORTH CENTRAL ARIZONA

CITY           SKY/WX    TMP DP  RH WIND       PRES   REMARKS
GRAND CANYON     N/A    N/A N/A N/A MISG        N/A
WILLIAMS       CLEAR     48  46  93 SE7       30.31R
PRESCOTT       PTCLDY    57  49  74 CALM      30.14S
6HR MIN TEMP:  57; 6HR MAX TEMP:  68;

FLAGSTAFF      PTCLDY    47  44  90 S3        30.26F
6HR MIN TEMP:  46; 6HR MAX TEMP:  52;

PAYSON         MOCLDY    61  54  77 CALM      30.16R
PAGE           MOCLDY    66  50  56 CALM      30.09R
6HR MIN TEMP:  66; 6HR MAX TEMP:  73;

$$

AZZ009>014-017-211300-
NORTHEAST ARIZONA

CITY           SKY/WX    TMP DP  RH WIND       PRES   REMARKS
WINSLOW        CLOUDY    61  56  83 CALM      30.14S
6HR MIN TEMP:  60; 6HR MAX TEMP:  67;

SAINT JOHNS    MOCLDY    59  51  75 S5        30.17S
6HR MIN TEMP:  58; 6HR MAX TEMP:  66;

SHOW LOW       MOCLDY    54  48  82 CALM      30.24F
$$

AZZ023-211300-
GREATER PHOENIX AREA

CITY           SKY/WX    TMP DP  RH WIND       PRES   REMARKS
PHOENIX        CLOUDY    84  59  42 SE5       29.87S
6HR MIN TEMP:  83; 6HR MAX TEMP:  89;

BUCKEYE          N/A     75  66  73 CALM      29.88R
LUKE AFB       NOT AVBL
6HR MIN TEMP:  79; 6HR MAX TEMP:  84;

DEER VALLEY    CLOUDY    79  65  62 E5        29.89S
6HR MIN TEMP:  78; 6HR MAX TEMP:  83;

SCOTTSDALE     CLOUDY    81  60  48 SE3       29.91S
6HR MIN TEMP:  80; 6HR MAX TEMP:  84;

MESA-GATEWAY   MOCLDY    79  61  53 E8        29.92R
$$

AZZ027-028-211300-
SOUTHWEST MARICOPA COUNTY AND PINAL COUNTY

CITY           SKY/WX    TMP DP  RH WIND       PRES   REMARKS
CASA GRANDE    CLOUDY    79  57  47 CALM      29.91S
6HR MIN TEMP:  79; 6HR MAX TEMP:  84;

$$

AZZ503-504-507>509-211300-
SOUTHEAST ARIZONA

CITY           SKY/WX    TMP DP  RH WIND       PRES   REMARKS
TUCSON         CLOUDY    77  64  64 S3        30.00S
6HR MIN TEMP:  77; 6HR MAX TEMP:  81;

DAVIS-MONTHAN  CLOUDY    74  66  77 SE3       29.98F
6HR MIN TEMP:  74; 6HR MAX TEMP:  78;

NOGALES        CLOUDY    67  63  87 CALM      30.06F
6HR MIN TEMP:  66; 6HR MAX TEMP:  69;

SIERRA VISTA   MOCLDY    66  61  82 CALM      30.12S
DOUGLAS        CLOUDY    64  61  90 SE3       30.09S
6HR MIN TEMP:  63; 6HR MAX TEMP:  67;

SAFFORD        PTCLDY    66  61  84 S5        30.00S
6HR MIN TEMP:  65; 6HR MAX TEMP:  77;

$$

AZZ020-021-025-026-031-211300-
SOUTHWEST ARIZONA

CITY           SKY/WX    TMP DP  RH WIND       PRES   REMARKS
YUMA           CLOUDY    85  62  46 S6        29.80F
6HR MIN TEMP:  85; 6HR MAX TEMP:  88;

$$

CAZ031-033-041-043-047-048-061-211300-
SOUTHERN CALIFORNIA

CITY           SKY/WX    TMP DP  RH WIND       PRES   REMARKS
DOWNTOWN L.A.  CLEAR     66  60  81 CALM      29.92S
6HR MIN TEMP:  65; 6HR MAX TEMP:  68;

L.A. AIRPORT   MOCLDY    67  60  78 W7        29.92F
6HR MIN TEMP:  67; 6HR MAX TEMP:  68;

SAN DIEGO      CLOUDY    71  62  73 NE3       29.91F
6HR MIN TEMP:  70; 6HR MAX TEMP:  71;

BURBANK        CLEAR     65  59  81 S3        29.92F
6HR MIN TEMP:  65; 6HR MAX TEMP:  69;

ONTARIO        CLEAR     66  60  81 W5        29.93S
6HR MIN TEMP:  66; 6HR MAX TEMP:  70;

RIVERSIDE      CLEAR     65  61  87 CALM      29.93S
6HR MIN TEMP:  65; 6HR MAX TEMP:  70;

PALM SPRINGS   CLEAR     77  58  51 W3        29.83S
6HR MIN TEMP:  76; 6HR MAX TEMP:  87;

EL CENTRO NAS  CLEAR     80  53  39 SE3       29.78S
6HR MIN TEMP:  77; 6HR MAX TEMP:  88;

IMPERIAL       CLEAR     80  53  39 CALM      29.78S
6HR MIN TEMP:  80; 6HR MAX TEMP:  86;

BLYTHE         CLEAR     79  72  79 E3        29.80F
6HR MIN TEMP:  79; 6HR MAX TEMP:  83;

NEEDLES        PTCLDY    85  57  38 CALM      29.85
6HR MIN TEMP:  84; 6HR MAX TEMP:  94;

$$

NVZ020-UTZ003-211300-
SOUTHERN NEVADA-UTAH

CITY           SKY/WX    TMP DP  RH WIND       PRES   REMARKS
LAS VEGAS      PTCLDY    77  45  32 SW8       29.89S
6HR MIN TEMP:  76; 6HR MAX TEMP:  82;

SALT LAKE CITY LGT RAIN  67  52  58 SE7       30.01S
6HR MIN TEMP:  65; 6HR MAX TEMP:  68; 6HR PCP: TRACE;

$$

NMZ009-TXZ055-211300-
NEW MEXICO-WEST TEXAS

CITY           SKY/WX    TMP DP  RH WIND       PRES   REMARKS
ALBUQUERQUE    PTCLDY    62  45  53 SE3       30.13R
6HR MIN TEMP:  62; 6HR MAX TEMP:  73;

EL PASO        PTCLDY    70  49  47 E3        30.03R
6HR MIN TEMP:  70; 6HR MAX TEMP:  82;

$$


........................KEY........................
SKY/WX - SKY CONDITION/WEATHER
TMP    - TEMPERATURE IN FAHRENHEIT
DP     - DEW POINT IN FAHRENHEIT
RH     - RELATIVE HUMIDITY IN PERCENT
WIND   - DIRECTION AND SPEED IN MILES PER HOUR (MPH)
VRB    - VARIABLE WIND DIRECTION
PRES   - MEAN SEA LEVEL PRESSURE IN INCHES OF MERCURY
         F - FALLING PRESSURE   R - RISING PRESSURE
         S - STEADY PRESSURE
VSB    - VISIBILITY IN MILES
HX     - HEAT INDEX IN FAHRENHEIT
WCI    - WIND CHILL INDEX IN FAHRENHEIT
TC     - TEMPERATURE IN CELSIUS WHICH IS ALSO KNOWN AS
         TEMPERATURE IN CENTIGRADE
AFB    - AIR FORCE BASE
         LUKE AFB IS LUKE AIR FORCE BASE
         DAVIS-MONTHAN IS DAVIS-MONTHAN AIR FORCE BASE
NAS    - NAVAL AIR STATION
         EL CENTRO NAS IS EL CENTRO NAVAL AIR STATION
N/A    - NOT AVAILABLE


USA.gov is the U.S. government's official web portal to all federal, state and local government web resources and services.